Location: Hamburg
(53.5500°N, 10.0000°E)
Time: 22:46:48
(UTC+02:00)

A-11 Canister half - All Passes

Search period start: 31 March 2015 00:00
Search period end: 10 April 2015 00:00
Orbit: 1527 x 1682 km, 47.3° (Epoch: 30 March)

Date Brightness Start Highest point End Pass type
(mag) Time Alt. Az. Time Alt. Az. Time Alt. Az.
31 Mar - 15:07:15 10° S 15:13:55 21° SE 15:20:52 10° E daylight
31 Mar - 17:07:53 10° SW 17:17:18 46° SSE 17:26:34 10° E daylight
31 Mar - 19:11:39 10° WSW 19:21:32 62° S 19:31:09 10° E daylight
31 Mar - 21:16:20 10° W 21:25:50 50° SSW 21:34:59 10° SE visible
31 Mar - 23:21:45 10° W 23:29:17 25° SW 23:36:24 10° S visible
01 Apr - 14:46:02 10° S 14:52:26 20° SE 14:59:11 10° E daylight
01 Apr - 16:46:25 10° SW 16:55:46 45° SSE 17:05:02 10° E daylight
01 Apr - 18:50:06 10° WSW 18:59:59 62° S 19:09:37 10° E daylight
01 Apr - 20:54:45 10° W 21:04:18 51° SSW 21:13:32 10° SE visible
01 Apr - 23:00:07 10° W 23:07:49 26° SW 23:15:07 10° S visible
02 Apr - 14:24:50 10° S 14:30:58 19° SE 14:37:29 10° E daylight
02 Apr - 16:24:56 10° SW 16:34:14 44° SSE 16:43:29 10° E daylight
02 Apr - 18:28:33 10° WSW 18:38:26 61° S 18:48:06 10° E daylight
02 Apr - 20:33:11 10° W 20:42:47 52° SSW 20:52:05 10° SE visible
02 Apr - 22:38:28 10° W 22:46:21 27° SW 22:53:50 10° S visible
03 Apr - 14:03:38 10° SSE 14:09:30 18° SE 14:15:46 10° E daylight
03 Apr - 16:03:28 10° SW 16:12:43 43° SSE 16:21:55 10° E daylight
03 Apr - 18:06:59 10° WSW 18:16:54 61° S 18:26:34 10° E daylight
03 Apr - 20:11:37 10° W 20:21:16 53° SSW 20:30:36 10° SE daylight
03 Apr - 22:16:51 10° W 22:24:52 28° SW 22:32:31 10° SSE visible
04 Apr - 13:42:29 10° SSE 13:48:02 17° SE 13:54:01 10° E daylight
04 Apr - 15:42:02 10° SW 15:51:12 42° SSE 16:00:22 10° E daylight
04 Apr - 17:45:27 10° WSW 17:55:21 61° S 18:05:03 10° E daylight
04 Apr - 19:50:02 10° W 19:59:44 54° SSW 20:09:08 10° SE daylight
04 Apr - 21:55:13 10° W 22:03:23 29° SW 22:11:12 10° SSE visible
05 Apr - 13:21:22 10° SSE 13:26:34 16° SE 13:32:15 10° E daylight
05 Apr - 15:20:35 10° SSW 15:29:41 40° SSE 15:38:49 10° E daylight
05 Apr - 17:23:54 10° WSW 17:33:48 61° S 17:43:32 10° E daylight
05 Apr - 19:28:28 10° W 19:38:12 55° SSW 19:47:39 10° ESE daylight
05 Apr - 21:33:36 10° W 21:41:55 31° SW 21:49:52 10° SSE visible
06 Apr - 13:00:18 10° SSE 13:05:06 15° SE 13:10:26 10° E daylight
06 Apr - 14:59:08 10° SSW 15:08:10 39° SSE 15:17:15 10° E daylight
06 Apr - 17:02:21 10° WSW 17:12:15 60° S 17:21:59 10° E daylight
06 Apr - 19:06:53 10° W 19:16:40 56° SSW 19:26:10 10° ESE daylight
06 Apr - 21:11:59 10° W 21:20:26 32° SW 21:28:32 10° SSE visible
07 Apr - 12:39:16 10° SSE 12:43:39 14° SE 12:48:35 10° E daylight
07 Apr - 14:37:42 10° SSW 14:46:40 38° SSE 14:55:40 10° E daylight
07 Apr - 16:40:49 10° WSW 16:50:42 60° S 17:00:27 10° E daylight
07 Apr - 18:45:19 10° W 18:55:08 57° SSW 19:04:41 10° ESE daylight
07 Apr - 20:50:22 10° W 20:58:56 33° SW 21:07:10 10° SSE visible
08 Apr - 12:18:18 10° SSE 12:22:11 13° SE 12:26:40 10° E daylight
08 Apr - 14:16:17 10° SSW 14:25:09 37° SSE 14:34:06 10° E daylight
08 Apr - 16:19:17 10° WSW 16:29:09 59° S 16:38:55 10° E daylight
08 Apr - 18:23:45 10° W 18:33:35 58° SSW 18:43:11 10° ESE daylight
08 Apr - 20:28:45 10° W 20:37:27 34° SW 20:45:49 10° SSE visible
08 Apr - 22:37:41 10° WSW 22:40:11 11° WSW 22:42:02 10° SW visible
09 Apr - 11:57:27 10° SE 12:00:44 12° SE 12:04:40 10° ESE daylight
09 Apr - 13:54:52 10° SSW 14:03:38 36° SE 14:12:31 10° E daylight
09 Apr - 15:57:45 10° WSW 16:07:36 59° SSE 16:17:23 10° E daylight
09 Apr - 18:02:11 10° W 18:12:03 58° SSW 18:21:41 10° ESE daylight
09 Apr - 20:07:10 10° W 20:15:58 35° SW 20:24:26 10° SSE daylight
09 Apr - 22:15:21 10° WSW 22:18:45 12° SW 22:21:31 10° SW visible
